Location: Bacharowice
(49.9333°N, 19.5833°E)
Time: 02:50:21
(UTC+00:00)

Cosmos 2154 Rocket - Pass Details

Date: 11 May 2021
Orbit: 965 x 997 km, 82.9° (Epoch: 22 June)

Event Time Altitude Azimuth Distance (km) Brightness Sun altitude
Rises 20:57:12 0° 348° (NNW) 3,724 8.6 -18.4°
Reaches altitude 10° 20:59:46 10° 345° (NNW) 2,768 7.6 -18.6°
Maximum altitude 21:06:00 62° 267° (W) 1,104 4.3 -19.0°
Enters shadow 21:09:45 25° 194° (SSW) 1,880 5.0 -19.2°
